RH
63 63 62 61 65 65 57 54 56 55 53 54 50 48 45 44 44 41 43 49 53 57 58 58 52 46 46 45 43 40 36 32 30 30 27 33 40 41 39 39 40 41 44 35 29 28 20 16 16 13 12 14 20 22 21 19 18 20 20 15 12 10 9 8 5 4 4 11 19 23 25 26 27 27 24 21 19 18 18 18 17 17 17 16 17
61 61 61 63 65 68 62 57 63 61 58 59 55 54 51 49 44 45 52 55 57 60 59 60 57 48 46 46 45 40 36 33 32 32 30 33 42 44 40 38 40 43 48 42 36 32 21 17 17 17 16 16 19 22 22 22 20 19 18 14 12 10 8 6 4 4 6 15 20 22 25 25 25 23 21 20 19 18 18 17 17 17 16 17 16
59 60 59 65 66 64 67 65 65 62 60 59 56 56 57 56 49 54 66 64 61 63 60 61 60 49 44 44 46 43 37 35 33 32 32 34 40 42 36 35 40 43 46 44 40 32 23 19 16 17 17 18 18 20 22 24 22 18 16 14 12 10 7 5 5 5 10 18 19 20 22 21 21 21 20 20 18 18 17 16 16 16 16 16 16
58 59 58 64 65 63 72 73 69 65 61 58 55 54 56 59 52 57 67 68 66 66 65 61 60 50 42 43 46 43 38 36 33 32 32 34 38 35 32 34 38 41 43 43 39 32 26 20 17 18 17 19 19 19 21 23 22 17 16 15 11 10 7 4 5 7 12 17 19 22 25 26 22 19 18 18 18 18 16 16 16 16 16 16 17
59 57 58 61 63 67 74 74 73 69 63 58 56 53 54 55 52 53 59 69 70 71 73 63 57 48 40 42 44 41 38 36 32 31 32 37 40 36 34 35 37 40 40 39 37 33 29 23 20 20 18 20 19 18 21 23 21 17 18 16 11 9 6 4 5 8 13 17 24 29 31 31 25 18 17 18 18 18 17 17 16 16 16 16 17
57 54 54 58 61 68 75 75 73 68 63 59 58 54 52 50 51 51 53 68 74 75 79 69 56 45 39 39 40 40 38 36 32 30 34 40 39 37 38 35 35 38 38 36 35 31 28 24 23 23 20 21 18 17 22 24 21 17 18 18 13 8 6 5 4 8 12 20 28 32 31 30 26 19 18 19 18 18 17 17 17 16 16 16 17
54 52 51 56 60 65 71 73 70 62 59 56 55 56 51 46 47 51 51 60 68 73 77 76 64 49 43 39 37 38 36 35 33 31 34 37 33 33 33 31 31 35 38 36 31 27 23 23 23 22 21 19 17 20 24 23 21 18 18 18 15 10 7 5 5 6 13 24 29 32 32 29 28 22 18 20 19 19 18 17 17 16 16 17 17
52 52 51 57 61 61 63 67 66 60 58 54 54 56 52 46 46 52 53 55 63 70 72 74 70 59 51 41 38 36 33 32 32 32 33 32 29 29 27 27 26 29 34 32 27 23 22 22 20 20 21 19 17 23 25 22 21 19 18 18 16 12 8 6 6 6 16 28 29 31 33 29 26 21 18 19 19 19 19 18 17 16 17 17 17
51 49 49 57 59 56 55 58 58 56 57 56 56 58 54 48 47 52 56 58 62 66 66 65 68 68 58 45 39 35 32 33 32 33 33 31 29 27 26 25 23 24 28 26 23 22 22 21 20 22 22 19 19 25 26 23 22 20 18 18 17 13 9 7 5 9 23 31 28 32 32 29 25 19 17 19 18 18 18 18 18 16 16 17 17
49 45 44 50 53 52 49 49 48 50 56 56 54 57 55 51 50 54 57 60 61 62 62 62 65 68 61 49 42 38 36 35 35 35 33 29 27 25 24 24 21 20 24 24 21 21 21 19 21 24 21 19 21 25 26 24 22 21 18 18 17 13 10 7 5 14 29 31 30 30 28 30 28 19 17 17 17 17 17 18 18 17 16 17 16
42 39 39 42 44 45 44 43 43 45 54 58 52 53 54 51 50 54 58 61 63 63 60 62 63 64 60 52 46 41 38 36 37 37 33 28 26 24 23 22 20 17 20 22 20 18 19 18 22 24 18 16 22 25 26 24 22 21 18 18 17 14 10 6 9 20 28 32 33 27 23 28 24 17 16 17 17 17 17 18 18 17 17 17 16
36 34 34 36 36 39 40 41 48 51 55 61 56 53 52 48 45 49 53 54 59 63 63 62 61 61 62 57 51 46 40 37 39 36 31 28 25 24 22 22 20 17 18 20 18 17 18 18 20 23 17 14 22 26 26 24 22 21 19 19 18 14 9 7 15 22 26 32 29 23 27 28 19 16 17 16 17 17 18 18 18 17 17 17 17
34 33 32 34 36 39 40 38 51 60 60 66 65 60 56 50 46 46 47 49 53 58 62 62 59 60 64 62 57 53 44 39 40 35 30 28 25 23 22 21 21 18 16 18 17 17 18 19 20 21 17 16 24 26 26 24 21 21 19 21 18 14 9 8 17 22 27 32 27 26 31 27 17 15 17 16 16 17 17 18 18 18 17 17 17
32 34 33 36 38 41 46 50 61 69 74 77 72 70 65 57 52 47 45 49 51 52 58 61 59 58 62 66 63 58 48 40 39 34 29 28 25 23 22 22 22 19 17 17 17 18 18 19 21 20 17 19 25 25 25 22 21 21 19 21 19 14 9 9 16 21 25 28 29 30 28 22 16 17 17 17 16 16 17 18 19 19 18 17 17
24 30 33 36 39 42 47 62 78 84 90 84 72 74 71 65 59 52 47 47 49 50 54 57 57 57 59 65 67 60 50 44 40 35 30 28 27 25 25 24 22 20 19 17 16 17 18 19 20 20 19 19 23 24 24 22 21 20 19 21 18 14 10 12 17 18 20 24 28 29 29 24 15 17 17 17 17 17 17 17 18 18 18 17 17
16 23 31 33 37 44 46 61 79 83 93 89 80 80 74 69 65 59 50 45 49 49 50 52 54 56 56 59 64 59 51 49 45 38 35 32 30 28 28 26 22 20 18 15 16 17 18 19 17 18 20 20 20 23 24 22 20 20 21 20 19 14 10 17 20 16 17 23 27 30 34 25 15 18 17 18 18 17 18 17 17 16 17 16 17
14 19 26 31 36 46 51 60 68 69 80 84 82 81 72 65 60 59 52 45 49 48 46 48 48 53 53 52 54 53 51 53 48 45 44 41 39 34 30 27 23 20 16 15 14 14 18 18 15 17 21 22 19 20 24 23 21 21 22 21 19 15 10 15 19 14 14 19 25 31 34 22 14 19 18 20 19 18 18 16 17 16 16 15 16
12 16 20 27 33 40 47 52 57 58 62 65 67 66 60 54 52 54 50 48 50 46 42 42 44 47 50 49 46 49 52 54 51 49 49 51 52 45 37 30 24 19 16 15 11 13 17 16 13 16 20 25 21 18 22 23 22 21 22 22 18 15 11 12 17 15 10 13 22 29 31 19 13 17 18 21 21 18 17 16 16 15 15 15 15
8 11 15 24 28 30 35 40 45 48 48 50 52 50 46 47 48 51 49 50 51 47 42 41 42 43 47 47 44 47 52 56 56 51 52 57 57 53 47 36 24 19 17 15 12 14 17 15 13 16 20 24 21 18 23 22 21 21 21 20 17 15 11 14 21 17 10 10 18 27 25 15 13 17 16 19 21 19 17 16 15 14 14 15 15
5 7 10 18 23 24 27 30 34 37 37 38 41 42 41 41 43 47 51 52 52 50 44 40 40 41 45 45 45 52 57 64 63 56 59 63 58 56 56 47 31 22 18 14 15 16 16 15 14 15 19 21 19 19 22 21 19 18 17 18 16 13 14 21 23 18 16 12 14 20 16 12 14 15 15 18 20 19 16 15 14 14 14 14 15
8 7 7 11 16 21 23 24 26 28 29 30 33 40 42 42 42 43 48 53 55 52 45 43 42 43 50 48 50 60 63 71 72 63 63 65 62 60 58 54 42 30 23 17 17 17 16 15 14 16 19 19 21 21 22 22 20 17 15 16 14 16 22 23 17 15 18 14 13 16 11 11 14 13 15 16 18 18 16 15 14 14 14 14 14
11 10 8 8 11 16 20 21 22 23 28 32 32 38 43 46 46 43 46 53 57 56 53 54 51 50 56 55 59 70 69 73 76 71 69 69 67 64 59 55 48 38 30 22 18 17 17 16 15 17 20 22 24 26 24 23 21 18 16 15 14 23 27 19 15 18 17 14 16 14 9 11 12 13 15 14 16 17 15 14 14 14 14 14 14
11 12 9 7 8 12 16 17 18 19 26 33 35 39 42 43 44 47 51 53 56 60 62 65 62 59 61 59 63 71 71 76 77 73 75 74 69 64 60 56 50 42 34 26 21 19 19 18 18 18 21 24 25 26 25 25 23 20 18 17 19 28 28 18 18 22 18 16 16 12 10 11 11 13 14 14 15 15 14 14 14 14 14 14 14
10 11 11 8 8 10 13 15 16 15 20 29 35 42 42 39 41 47 53 54 55 60 66 71 69 65 64 62 64 66 71 82 78 73 76 75 73 68 60 56 52 46 37 31 27 21 20 21 20 20 22 24 23 24 25 26 25 23 22 21 25 29 27 22 23 26 23 17 14 10 10 10 11 12 12 13 14 14 14 13 14 14 14 14 13
9 12 13 10 9 10 11 14 16 15 17 22 29 40 43 40 42 46 51 55 56 59 64 70 68 64 66 67 70 69 72 83 76 68 73 73 74 73 61 54 52 47 39 33 31 25 23 23 21 22 24 24 22 23 25 26 27 27 26 25 27 28 27 26 27 29 26 18 13 9 8 9 10 11 11 12 12 13 13 13 14 13 13 13 13
12 14 14 11 11 11 11 12 15 16 16 19 21 32 41 42 44 46 48 53 57 60 64 68 64 62 67 72 77 75 72 79 74 66 67 67 73 76 65 54 52 50 41 37 35 29 27 26 23 23 24 24 24 24 26 27 27 27 28 26 26 27 27 28 28 28 27 22 13 6 6 8 8 10 10 11 11 12 12 12 12 12 12 12 12
15 15 15 13 12 12 12 11 12 14 16 18 18 25 36 42 47 47 46 49 54 59 63 66 65 63 66 73 79 78 74 73 71 68 65 61 69 75 70 61 56 52 45 43 40 32 31 30 25 25 24 23 24 24 25 27 27 27 27 26 26 27 27 27 28 28 27 26 18 7 6 7 6 7 8 9 10 10 11 11 11 11 12 11 12
16 16 17 15 13 12 12 12 11 12 13 17 18 20 27 37 48 50 46 46 51 56 61 63 64 63 63 68 74 77 78 74 68 67 64 60 64 71 72 68 62 55 47 46 45 39 36 33 28 25 24 23 24 23 23 24 26 27 27 27 27 26 26 27 28 29 27 28 25 12 7 7 6 6 7 7 8 9 9 10 10 11 11 11 11
16 16 16 15 14 13 12 12 12 12 12 14 17 18 20 27 40 50 51 51 54 55 57 57 60 61 57 60 68 71 77 79 72 64 65 67 63 65 71 71 66 60 52 47 47 44 39 35 31 27 25 23 23 24 22 23 25 27 27 27 27 27 27 27 26 28 27 28 29 21 12 9 8 7 7 8 6 7 8 9 9 10 10 10 10
17 16 18 16 14 14 12 12 12 12 13 14 15 18 19 21 29 41 48 50 53 57 59 57 56 58 55 55 61 64 67 75 75 66 68 74 64 58 65 71 69 62 57 52 47 44 39 35 34 31 27 24 22 23 23 23 23 25 27 27 27 27 27 27 26 26 27 27 29 28 19 12 10 8 8 10 9 7 8 8 8 9 9 9 10
18 20 21 17 14 15 14 12 13 12 13 15 13 15 17 19 22 30 39 42 45 54 62 60 57 57 55 53 55 58 60 64 70 66 65 70 64 58 60 66 69 63 61 58 51 46 40 34 34 34 31 26 22 23 24 24 22 23 26 27 27 28 28 28 27 26 27 26 28 30 26 17 12 10 10 11 11 8 9 10 8 8 8 8 9
21 23 21 16 14 15 14 13 13 12 12 13 13 13 14 16 18 21 29 36 40 45 51 53 55 58 58 57 54 55 57 58 61 62 63 64 64 65 61 61 68 65 62 61 54 49 47 40 34 33 33 31 26 24 24 24 22 22 24 26 27 28 28 27 27 26 26 26 26 27 28 24 17 11 9 11 12 9 8 10 7 6 7 7 7
22 20 17 15 15 15 14 13 13 12 11 11 11 12 12 13 14 16 20 27 35 39 41 42 44 48 55 62 60 55 55 54 55 60 64 62 61 67 67 64 67 68 65 63 58 51 52 49 38 29 29 31 32 29 26 24 22 22 23 25 26 27 26 26 27 27 26 25 25 25 26 28 25 19 11 8 11 11 9 10 8 6 7 7 7
22 19 15 15 14 13 13 13 13 12 12 11 10 10 10 10 11 13 14 17 25 32 36 38 38 38 43 55 62 62 58 54 53 55 61 63 60 63 69 71 73 74 71 67 62 56 54 53 47 40 34 30 32 32 28 26 23 23 23 24 25 26 26 26 26 27 27 26 25 25 25 26 26 25 20 12 8 10 13 13 11 9 6 6 7
22 18 16 15 13 12 12 12 13 13 13 12 12 11 11 10 10 11 12 14 17 23 29 33 36 36 38 43 51 58 62 61 58 54 55 62 64 64 66 70 76 82 80 73 66 62 58 54 52 53 50 39 32 30 29 28 25 22 23 24 24 25 26 26 25 26 26 25 25 26 26 25 24 25 26 22 14 9 12 13 12 12 9 7 8
21 18 16 14 12 11 12 12 12 13 13 13 12 12 11 11 11 11 11 12 13 16 21 26 30 33 36 37 41 47 52 56 61 61 58 57 62 67 68 65 70 80 86 83 74 70 65 59 55 55 58 51 39 31 29 29 26 21 22 24 24 24 25 24 24 25 24 24 24 25 26 25 25 25 25 27 23 15 12 12 12 12 10 9 9
20 18 16 14 12 11 11 11 11 11 12 12 12 12 11 11 11 11 11 12 13 13 15 18 22 26 28 31 36 39 42 46 54 61 66 63 61 69 73 66 66 74 82 85 82 80 75 67 60 54 56 57 48 37 31 29 26 22 21 24 24 24 24 23 24 24 23 23 24 24 25 25 24 25 24 26 27 23 18 14 11 11 11 10 11
21 19 18 16 14 12 11 10 11 11 11 11 12 12 11 11 11 10 10 10 11 13 14 14 16 18 21 23 27 31 35 41 46 54 66 73 70 70 76 74 70 70 75 80 82 85 82 75 68 59 55 59 56 46 36 30 26 23 23 24 24 24 23 23 24 23 22 22 23 23 23 24 24 23 23 24 26 26 25 20 13 9 9 9 11
22 21 20 19 17 15 13 12 12 12 12 12 12 12 12 11 11 11 11 10 10 11 13 14 15 15 16 17 20 23 27 34 41 49 62 76 80 74 75 80 78 74 73 77 80 82 81 77 74 68 61 60 62 56 45 35 27 24 25 25 24 24 24 24 23 23 22 21 22 23 23 24 24 23 23 24 25 26 26 26 20 14 12 8 8
23 22 21 20 19 18 16 15 14 14 14 14 13 13 13 12 11 10 10 10 10 10 12 13 15 16 15 14 15 16 20 26 33 41 50 65 80 82 79 80 83 83 81 80 79 77 76 76 77 76 69 63 64 62 55 46 35 27 27 27 25 24 24 24 24 23 22 21 21 23 23 24 24 23 23 24 25 25 24 26 26 23 21 16 11
23 23 22 22 21 20 19 18 17 17 16 16 16 15 14 12 11 11 10 9 9 10 11 12 15 16 16 15 14 14 16 20 26 33 38 45 61 77 83 83 83 84 84 85 82 77 73 74 76 78 77 70 69 69 63 55 45 36 32 29 28 26 24 24 24 22 21 21 22 23 24 24 24 23 24 24 25 25 25 26 26 26 26 25 20
24 23 23 23 22 21 21 20 19 19 18 18 17 16 15 13 12 12 10 10 8 8 10 11 13 15 16 16 15 15 15 17 21 27 32 35 41 57 73 82 82 82 83 83 84 81 77 75 74 75 79 77 77 76 68 60 54 46 40 35 31 28 26 25 24 22 22 21 23 24 23 23 23 23 24 25 25 24 25 25 25 25 25 27 26
24 24 24 23 23 22 22 21 21 21 20 20 18 17 16 14 13 13 12 10 8 8 9 9 11 14 16 17 17 16 15 16 20 23 28 34 36 42 55 69 77 80 83 82 81 79 77 81 82 77 76 78 82 81 71 65 61 54 49 40 34 31 28 27 26 23 23 23 25 25 23 22 22 23 24 24 25 24 24 24 25 25 25 26 27
24 24 25 25 24 24 24 23 23 23 22 21 21 18 17 15 14 13 13 12 10 9 10 11 15 16 18 23 23 18 15 16 21 24 28 33 36 37 43 56 68 76 81 85 86 80 74 81 90 85 77 75 80 82 75 73 70 61 56 48 41 35 28 26 27 24 23 24 26 25 24 23 21 22 24 24 24 24 25 25 24 23 23 23 24
25 25 26 26 26 26 26 26 25 25 24 24 23 20 18 16 14 14 13 13 12 12 12 13 16 20 23 27 25 20 18 18 19 23 29 31 32 32 34 41 53 65 72 76 80 80 74 76 83 85 81 76 77 81 80 80 78 68 62 58 50 41 32 28 28 26 25 25 25 25 25 24 22 23 23 23 23 24 24 23 20 20 19 17 18
25 26 26 27 28 28 27 27 27 26 26 25 23 22 20 18 16 15 15 14 13 14 14 13 13 18 24 24 22 20 20 19 18 20 24 27 28 28 27 28 35 50 60 62 63 69 76 79 77 79 83 81 79 81 81 83 85 77 69 65 59 52 44 37 31 27 26 26 25 25 25 24 23 24 24 23 22 23 23 20 17 15 12 10 11
26 26 26 27 29 29 28 28 28 27 27 27 24 22 21 20 18 17 17 16 14 14 15 14 12 14 18 19 21 22 21 20 20 20 21 22 23 25 25 24 25 32 43 51 52 53 63 77 81 83 87 85 81 82 82 83 87 82 76 73 69 64 58 50 43 36 30 28 26 24 24 23 23 25 26 23 23 24 23 21 18 13 9 7 7
26 26 27 28 29 29 29 29 29 28 29 28 26 24 22 20 19 18 18 17 16 15 15 15 14 13 14 15 18 20 21 21 20 19 21 22 23 25 25 24 22 21 26 35 41 40 43 58 73 79 84 86 85 85 84 85 89 87 84 81 77 73 68 61 55 48 40 35 32 27 23 23 24 26 27 26 25 25 26 23 20 18 14 11 8
25 26 27 29 30 30 30 30 30 30 30 30 28 26 23 22 21 19 18 17 17 16 15 15 15 14 13 14 15 16 18 20 21 20 20 22 24 26 26 25 24 22 20 22 27 31 31 37 50 59 67 76 85 89 87 86 89 92 91 88 84 81 76 68 61 53 46 42 41 35 28 26 26 27 27 27 27 27 28 25 22 22 20 18 13
26 27 28 29 30 31 31 31 31 31 31 31 30 27 25 23 22 21 20 19 18 17 16 14 14 14 13 14 15 16 16 17 18 18 19 20 22 24 24 24 26 25 22 19 19 22 23 24 30 36 42 52 69 85 91 88 89 91 92 92 91 88 84 77 69 60 50 45 46 44 36 30 28 27 27 28 28 28 29 28 26 24 23 23 19
27 28 29 29 30 30 31 31 32 32 32 32 31 28 25 24 23 22 21 21 21 20 19 17 14 13 12 12 13 16 18 17 16 15 15 17 19 22 24 24 26 25 23 21 20 19 19 20 23 26 28 32 47 68 81 85 90 93 91 90 91 92 90 84 77 70 61 52 46 45 41 34 30 28 27 28 28 28 29 28 27 26 26 25 23